Regional Weather Roundup
Issued by NWS

Home | Current Version | Previous Version | Text Only | Print | Product List | Glossary Off
Versions: 1 2 3 4 5 6 7 8 9 10 11 12 13 14 15 16 17 18 19 20 21 22 23 24 25 26 27 28 29 30 31 32 33 34 35 36 37 38 39 40 41 42 43 44 45 46 47 48 49 50

000
ASUS43 KFSD 102302
RWRSD

WEATHER ROUNDUP FOR SOUTH DAKOTA
NATIONAL WEATHER SERVICE SIOUX FALLS SD
500 PM CST WED FEB 10 2016

NOTE: "FAIR" INDICATES FEW OR NO CLOUDS BELOW 12,000 FEET WITH NO
SIGNIFICANT WEATHER AND/OR OBSTRUCTIONS TO VISIBILITY.


SDZ001>005-009-010-012>017-110000-
NORTHWEST AND NORTH CENTRAL SOUTH DAKOTA

CITY           SKY/WX    TMP DP  RH WIND       PRES   REMARKS
BUFFALO          N/A     48  31  51 N16       29.96R
FAITH            N/A     42  29  59 N18       30.00R
MOBRIDGE       CLOUDY    27  19  72 N9        30.04R WCI  18
$$

SDZ012>016-024>037-041>051-057-063-072>074-110000-
SOUTHWEST AND SOUTH CENTRAL SOUTH DAKOTA

CITY           SKY/WX    TMP DP  RH WIND       PRES   REMARKS
RAPID CTY ARPT SUNNY     59  23  25 NW24G31   29.97R
PIERRE         CLOUDY    37  26  64 NE18      30.01R
CUSTER         CLOUDY    51  18  27 NW9G18    30.01R
ELLSWORTH AFB  SUNNY     56  24  28 N23       29.97R
PHILIP         SUNNY     51  34  52 N15       29.98R
PINE RIDGE     CLOUDY    57  25  29 N14       29.98R
WINNER         FAIR      43  30  60 N14       29.97R
$$

SDZ004>011-016>023-039-040-110000-
NORTHEAST SOUTH DAKOTA

CITY           SKY/WX    TMP DP  RH WIND       PRES   REMARKS
ABERDEEN       CLOUDY    17   9  70 NE10      30.12R WCI   5
WATERTOWN      CLOUDY    11   4  73 E8G17     30.05R WCI  -1
BROOKINGS      FLURRIES  12   7  80 E10       30.06R WCI  -1
SISSETON         N/A     10   5  80 E7        30.15R WCI  -1
$$

SDZ017-020-022-023-036>040-048>070-110000-
SOUTHEAST SOUTH DAKOTA

CITY           SKY/WX    TMP DP  RH WIND       PRES   REMARKS
SIOUX FALLS    CLOUDY    16  10  77 E13       30.05R WCI   2
HURON          CLOUDY    21  15  78 E12       30.07R WCI   9
MITCHELL       CLOUDY    25  18  74 E14       30.06R WCI  13
YANKTON        MOCLDY    21  16  79 NE13      30.03R WCI   9
$$

ABBREVIATIONS USED IN REMARKS
   TC - TEMPERATURE IN CELSIUS
  WCI - WIND CHILL INDEX
   HX - HEAT INDEX
  VSB - VISIBILITY




USA.gov is the U.S. government's official web portal to all federal, state and local government web resources and services.